CAPE
0 0 55 219 81 166 118 139 12 29 33 22 0 82 146 235 65 82 84 103 167 252 304 380 831 1234 1180 958 813 874 1135 1361 1398 1445 1641 1492 1440 1421 1302 1240 1247 1399 1503 1487 1750 1864 1920 2636 2458
0 30 87 0 77 30 102 155 164 205 92 38 58 184 164 263 339 114 25 145 192 277 245 336 739 1152 1148 988 1000 649 809 977 754 1210 1387 1301 1292 1306 1243 1319 1465 1683 1805 1679 1692 1817 2037 2127 2468
112 568 8 11 88 85 100 282 266 218 133 65 119 128 209 179 86 1 83 149 335 468 325 512 1205 1313 1111 942 964 895 971 871 847 1163 1313 1400 1380 1514 1594 1660 1656 1787 1928 2074 1975 1871 2033 2352 2462
185 299 12 60 62 89 310 338 364 260 57 104 60 36 282 352 29 99 169 156 473 672 556 860 1227 1312 1262 1096 1006 1091 1148 1187 1235 1446 1498 1609 1635 1760 1649 1547 1496 1529 1528 1706 1798 1641 1791 2243 2498
256 106 0 1 22 149 207 372 298 260 36 211 66 58 115 516 326 140 180 122 359 556 713 934 1224 1167 1347 1372 1306 1357 1323 1306 1379 1293 1268 1301 1317 1509 1633 1800 1508 1472 1569 1608 1593 1537 1628 1622 1836
13 20 0 0 10 60 0 68 0 75 203 177 112 72 209 479 315 172 192 144 199 307 711 1145 1081 1215 1180 1381 1256 1241 1202 1119 1184 1200 1149 1217 1209 1343 1503 1558 1367 1670 1613 1316 1502 1453 1257 1381 1355
60 140 5 2 36 92 174 230 274 210 256 209 134 45 277 342 385 149 242 279 117 263 742 912 1154 1122 1301 1384 1350 1254 1295 1318 1125 1064 1209 1484 1203 1205 1458 1577 1609 1214 1062 923 1207 1409 1419 1309 1399
156 142 59 149 2 18 382 525 480 353 469 308 257 15 156 380 287 106 143 385 511 298 416 584 936 884 1189 1286 1463 1495 1347 1117 1459 1230 1397 1280 1320 1297 1320 1594 1353 1187 1234 1180 1029 1370 1135 1145 1389
0 46 0 0 5 11 620 395 505 634 432 346 380 383 559 342 202 80 96 233 422 410 370 953 1161 1403 1378 1318 1110 769 655 493 615 1326 1577 1285 1158 910 1317 1320 1304 1176 1104 1091 1141 1300 1300 1095 1363
0 0 0 26 85 36 575 479 497 495 520 255 508 724 693 411 188 40 35 120 241 422 705 803 1151 953 1084 446 37 47 27 106 124 282 812 1217 1475 1373 1243 1150 1113 1326 1004 1218 1265 1224 1193 1187 858
7 0 3 11 82 421 537 559 564 521 301 279 400 563 740 479 309 108 88 163 325 576 894 1082 1229 1506 554 467 464 158 83 36 0 197 300 1287 1337 1305 1312 975 874 559 737 953 931 1356 1091 1231 982
0 0 17 43 201 491 530 876 621 511 423 336 551 746 777 709 589 338 199 256 430 757 926 1095 1257 1481 1318 722 402 348 163 89 192 433 836 1073 935 1103 941 419 357 710 536 548 890 945 1471 1357 1329
0 1 23 46 228 415 631 492 664 621 432 353 762 881 870 864 782 579 435 492 643 790 841 1011 1209 1369 1273 979 586 171 166 238 164 165 417 442 698 895 945 623 441 460 215 203 350 794 663 802 767
0 0 0 4 143 378 468 564 643 533 418 315 432 633 862 881 733 626 567 577 593 712 716 1034 1079 1203 1225 1064 596 142 10 343 201 18 144 564 710 885 652 337 187 147 286 121 16 266 850 964 685
0 0 0 3 22 141 283 250 317 590 478 275 389 478 668 785 737 639 538 479 345 539 720 925 1054 1111 1041 782 486 411 62 167 177 33 53 336 622 701 276 90 78 85 196 167 117 194 837 788 545
0 0 0 0 0 13 205 0 136 593 537 334 394 475 522 640 673 648 494 479 231 391 509 844 840 826 814 482 175 230 336 97 86 73 76 134 668 757 526 345 254 201 300 412 494 841 845 973 966
0 0 0 0 0 0 38 0 0 512 630 524 471 509 542 663 699 646 601 537 293 346 563 594 816 726 564 374 190 137 209 316 165 100 73 268 614 856 752 421 94 62 298 639 747 1062 1033 595 1106
0 0 0 0 0 0 1 0 0 173 509 632 603 651 691 675 749 818 727 693 648 596 621 619 728 815 678 549 405 435 473 444 401 205 187 176 431 709 719 540 169 401 616 653 520 998 694 760 894
0 0 0 0 0 0 0 0 0 80 353 552 658 694 786 828 960 877 873 828 797 706 735 804 712 697 729 481 662 719 634 620 535 358 99 228 441 490 827 745 663 402 402 679 738 1189 688 875 793
0 0 0 0 0 0 0 0 0 6 103 487 632 698 772 862 976 843 872 929 955 863 855 876 821 747 683 692 887 954 548 808 532 682 614 559 702 785 698 944 917 809 620 679 628 952 687 1071 821
0 0 0 0 0 0 0 0 0 0 71 649 758 643 622 768 868 1033 946 929 997 996 974 1017 1060 833 721 803 1037 1030 1011 1037 976 892 802 694 886 771 879 1024 935 817 531 549 530 611 995 555 531
0 0 0 0 0 0 0 0 0 0 0 9 778 984 954 763 788 1055 1085 999 1008 1084 1093 1119 1145 1130 1119 1045 1077 1101 1030 1021 988 802 828 1126 933 968 705 1034 1147 991 892 618 252 1210 1191 801 634
0 0 0 0 0 0 0 0 0 15 1 5 10 137 474 886 985 981 1076 1079 1038 1103 1075 1169 1254 1232 1324 1311 1261 1318 1307 1269 1325 1226 1154 1136 1007 1013 801 995 1093 1003 849 586 183 1109 1142 1139 786
0 0 0 0 0 0 0 0 0 92 125 158 624 552 53 341 719 1046 1091 1052 1048 1086 1008 1060 1216 1268 1351 1313 1315 1370 1413 1374 1223 1123 1051 1163 1147 1095 1165 959 1138 1006 928 584 229 333 722 1070 1250
0 0 0 0 0 0 0 0 116 373 462 740 523 353 183 395 657 882 1046 1076 1096 1080 1073 1076 1121 1232 1351 1395 1404 1373 1406 1427 1256 1114 1234 1040 1046 887 1022 1187 1115 1016 992 985 951 815 490 347 851
0 0 0 0 0 0 0 14 236 491 950 919 583 740 610 616 746 837 997 971 1097 1096 1144 1132 1083 1188 1203 1224 1350 1376 1331 1276 1161 1117 1138 1126 1013 1060 1184 1165 1070 1030 996 920 920 804 475 342 430
0 0 0 0 0 0 3 287 500 872 959 888 694 791 846 964 990 836 1044 1042 1020 1010 926 1189 1294 1342 1257 1220 1283 1074 1059 925 783 391 485 989 1053 1039 1119 1082 1015 937 979 919 885 862 654 587 978
0 0 0 0 0 0 10 205 491 901 964 936 974 1102 1129 1139 1097 1043 1189 1380 1320 1229 1190 1122 1211 1310 1227 1257 1307 1051 1147 825 433 299 351 492 732 1028 1082 1145 1146 1086 1117 974 1126 957 967 944 1199
0 0 0 0 0 0 8 17 1 1118 916 1019 939 1025 1088 1140 1157 986 1009 1405 1565 1394 1392 1457 1434 1499 1543 1526 1505 1012 500 1 32 123 586 468 259 549 996 1262 1212 1169 1075 1119 828 1131 1173 1305 1255
0 0 0 0 0 0 0 34 35 604 721 1090 1002 796 688 703 775 773 783 865 943 1549 1633 1315 1256 1407 1537 1371 719 313 468 709 720 623 404 460 922 690 764 1144 1332 1203 1123 1153 1183 1120 1060 1268 1184
CIN
0 0 -491 -315 -92 -59 -62 -24 -72 -42 -56 -42 -1 -42 -36 -62 -56 -33 -165 -130 -83 -35 -18 -19 -14 -1 -7 -14 -20 -18 -14 -11 -12 -15 -6 -11 -6 -1 -13 -20 -24 -14 -8 -9 -6 -10 -4 0 0
0 -477 -425 -51 -63 -75 -80 -50 -27 -40 -58 -60 -50 -42 -40 -54 -78 -152 -180 -103 -69 -54 -48 -21 -17 -4 -7 -13 -14 -26 -20 -17 -24 -14 -10 -16 -12 -7 -21 -22 -18 -2 0 -2 -2 -3 -1 -1 0
-369 -254 -274 -119 -83 -52 -72 -52 -35 -48 -52 -46 -54 -76 -61 -58 -114 -1 -125 -98 -31 -24 -33 -20 -2 -1 -5 -9 -10 -13 -14 -15 -18 -9 -9 -10 -17 -4 -8 -7 -7 0 0 -1 -1 0 0 0 0
-251 -190 -168 -114 -69 -107 -54 -45 -49 -33 -63 -37 -50 -55 -67 -46 -142 -120 -98 -91 -18 -9 -9 -2 0 0 0 -4 -8 -6 -7 -4 -3 -2 -3 -1 -6 -3 -6 -13 -9 0 0 0 -2 -1 0 0 0
-249 -201 0 -180 -108 -72 -73 -62 -54 -41 -95 -38 -46 -66 -88 -31 -40 -72 -83 -81 -32 -11 -6 0 0 0 0 0 0 0 0 0 0 -1 -6 -8 -9 -10 -6 0 0 0 -1 -1 -1 -2 0 -1 0
-164 -214 -46 0 -112 -81 0 -94 0 -79 -70 -60 -72 -78 -71 -21 -48 -77 -55 -68 -49 -47 -13 -2 -2 -1 -1 0 0 0 0 0 -1 -2 -5 -5 -8 -6 -4 0 0 -1 0 0 0 0 -3 -1 -4
-81 -72 -102 -97 -66 -36 -48 -86 -46 -54 -56 -57 -86 -45 -57 -30 -24 -68 -39 -33 -85 -57 -17 -9 -2 0 0 -1 0 0 0 0 0 -6 -5 0 -3 -7 0 0 0 0 -1 -1 0 0 0 -1 -4
-116 -78 -57 -50 -9 -75 -45 -47 -63 -52 -46 -79 -70 -14 -78 -63 -69 -64 -48 -18 -22 -46 -34 -28 -5 -4 0 0 -1 0 0 0 0 0 0 0 0 -1 0 -1 0 0 -2 -1 -1 -1 -1 -2 0
0 -42 0 0 -65 -22 -52 -29 -74 -81 -66 -78 -72 -67 -77 -94 -70 -88 -80 -49 -34 -39 -53 -12 -6 0 0 -2 -1 -1 -3 -4 0 0 0 0 0 -3 -1 -1 -1 -1 0 0 -2 -1 -1 -2 -2
0 0 0 -55 -48 -46 -48 -44 -68 -71 -77 -94 -73 -80 -78 -83 -102 -159 -163 -130 -105 -78 -42 -36 -7 -18 -5 -5 -31 -8 -46 -6 -17 -15 -3 0 0 0 -1 -2 -1 0 0 -1 -1 0 -1 -1 -1
-13 0 -14 -14 -61 -51 -59 -66 -88 -65 -61 -79 -44 -86 -77 -73 -78 -138 -151 -112 -102 -72 -39 -23 -8 -1 -36 -17 -23 -23 -20 -50 0 -32 -11 0 0 0 0 -17 -17 -30 -11 -2 0 0 0 0 -1
0 0 -35 -33 -63 -52 -49 -66 -57 -68 -51 -99 -79 -92 -115 -77 -76 -87 -120 -110 -97 -65 -46 -30 -12 0 -9 -30 -36 -27 -34 -46 -23 -20 -9 -3 -2 -1 -14 -58 -55 -21 -19 -9 -4 0 0 0 0
0 -2 -34 -40 -74 -56 -70 -50 -48 -69 -120 -168 -138 -104 -85 -77 -75 -73 -79 -86 -80 -68 -63 -43 -22 -4 -7 -16 -28 -30 -16 -9 -19 -31 -24 -31 -13 -9 -13 -44 -49 -37 -49 -32 -20 -7 -18 -22 -25
0 0 0 -34 -57 -56 -55 -61 -75 -122 -156 -179 -144 -115 -78 -86 -99 -105 -107 -101 -104 -85 -87 -61 -53 -32 -15 -18 -41 -53 -118 -11 -26 -66 -39 -29 -18 -11 -28 -59 -77 -62 -39 -58 -91 -35 -11 -16 -31
0 0 0 -26 -49 -48 -69 -80 -70 -145 -171 -155 -141 -123 -102 -98 -113 -116 -126 -132 -133 -99 -94 -87 -63 -42 -35 -42 -50 -41 -101 -50 -24 -89 -81 -39 -26 -28 -52 -92 -94 -86 -66 -80 -75 -63 -18 -38 -48
0 0 0 0 0 -51 -47 0 -93 -206 -141 -124 -152 -149 -142 -130 -112 -125 -132 -122 -202 -113 -110 -96 -87 -73 -60 -72 -101 -70 -48 -84 -79 -94 -78 -57 -24 -31 -43 -42 -37 -54 -68 -47 -26 -19 -30 -29 -35
0 0 0 0 0 0 -51 0 0 -264 -166 -127 -125 -136 -144 -130 -139 -145 -134 -137 -180 -131 -108 -115 -107 -99 -100 -98 -95 -92 -68 -42 -66 -86 -85 -51 -29 -24 -36 -45 -79 -99 -65 -37 -22 -13 -22 -20 -30
0 0 0 0 0 0 -8 0 0 -229 -206 -134 -136 -132 -146 -129 -103 -124 -131 -122 -114 -130 -115 -106 -110 -101 -98 -76 -77 -59 -42 -46 -45 -63 -70 -70 -47 -27 -35 -41 -68 -55 -43 -40 -46 -28 -23 -27 -31
0 0 0 0 0 0 0 0 0 -176 -228 -208 -170 -136 -117 -101 -111 -122 -127 -129 -119 -124 -123 -115 -127 -135 -112 -110 -62 -43 -50 -40 -44 -56 -102 -62 -42 -40 -21 -26 -40 -64 -55 -39 -34 -22 -20 -31 -55
0 0 0 0 0 0 0 0 0 -49 -166 -166 -177 -150 -142 -145 -153 -181 -161 -145 -129 -137 -144 -136 -146 -159 -156 -117 -77 -57 -87 -47 -53 -35 -47 -42 -33 -33 -31 -21 -19 -41 -37 -46 -42 -25 -20 -27 -58
0 0 0 0 0 0 0 0 0 0 -233 -207 -211 -203 -182 -156 -130 -154 -169 -154 -155 -148 -149 -150 -145 -159 -167 -128 -91 -78 -66 -55 -35 -32 -37 -59 -39 -38 -31 -26 -21 -27 -52 -37 -46 -19 -33 -22 -65
0 0 0 0 0 0 0 0 0 0 0 -31 -169 -190 -170 -185 -173 -130 -136 -141 -162 -149 -172 -159 -160 -148 -147 -146 -102 -86 -49 -30 -41 -28 -20 -29 -40 -35 -47 -26 -24 -26 -27 -53 -82 -26 -27 -31 -16
0 0 0 0 0 0 0 0 0 -125 -5 -125 -255 -236 -193 -150 -147 -118 -112 -120 -123 -157 -182 -179 -176 -156 -133 -135 -102 -80 -61 -45 -39 -32 -29 -31 -25 -22 -42 -32 -29 -27 -31 -50 -81 -24 -31 -30 -19
0 0 0 0 0 0 0 0 0 -124 -186 -187 -261 -285 -292 -211 -184 -148 -147 -163 -162 -196 -201 -183 -184 -170 -160 -156 -132 -97 -69 -58 -43 -39 -32 -24 -21 -22 -38 -46 -34 -31 -29 -45 -70 -59 -41 -33 -23
0 0 0 0 0 0 0 0 -102 -238 -315 -307 -309 -329 -319 -338 -261 -229 -220 -180 -177 -176 -202 -214 -204 -182 -182 -172 -148 -130 -96 -67 -52 -33 -24 -27 -24 -25 -34 -40 -40 -35 -40 -37 -34 -44 -57 -74 -35
0 0 0 0 0 0 0 -64 -85 -301 -332 -377 -436 -415 -424 -391 -346 -301 -248 -259 -230 -232 -212 -212 -204 -175 -223 -216 -192 -188 -150 -123 -108 -96 -83 -40 -28 -15 -30 -33 -33 -42 -41 -41 -42 -39 -60 -79 -59
0 0 0 0 0 0 -46 -109 -185 -257 -287 -337 -392 -403 -410 -393 -395 -394 -311 -284 -257 -221 -223 -211 -208 -216 -238 -238 -234 -231 -196 -198 -164 -219 -188 -106 -83 -42 -44 -56 -33 -32 -41 -42 -35 -30 -39 -44 -29
0 0 0 0 0 0 -97 -56 -35 -110 -201 -312 -330 -325 -349 -336 -321 -303 -252 -234 -254 -245 -238 -269 -275 -233 -226 -238 -174 -198 -172 -172 -263 -287 -258 -185 -139 -107 -68 -53 -56 -38 -30 -32 -37 -27 -31 -31 -16
0 0 0 0 0 0 -63 -60 -55 -131 -254 -283 -323 -326 -304 -280 -256 -270 -270 -245 -223 -217 -227 -242 -228 -193 -185 -175 -108 -150 -264 -111 -309 -267 -181 -216 -243 -162 -123 -70 -71 -53 -40 -45 -38 -28 -25 -23 -19
0 0 0 0 0 0 0 -48 -353 -251 -264 -268 -288 -315 -335 -321 -300 -293 -285 -266 -249 -182 -180 -213 -212 -187 -163 -141 -224 -236 -166 -147 -156 -167 -194 -168 -116 -155 -107 -102 -71 -82 -58 -41 -43 -38 -17 -19 -23
Wind_Speed
12 16 16 14 17 15 20 15 18 23 22 19 21 18 17 16 16 18 20 21 24 25 23 21 20 20 23 23 23 25 26 26 27 27 27 26 26 24 23 21 21 20 18 17 17 16 14 15 18
17 16 16 12 16 10 18 18 21 20 20 21 20 19 16 16 16 18 22 24 26 23 22 20 17 17 19 23 23 23 23 25 25 25 25 25 24 23 21 20 19 18 17 16 16 15 14 15 15
14 14 13 13 16 11 16 19 19 22 20 19 19 19 15 14 17 21 20 26 25 27 25 19 16 17 17 18 21 20 21 23 23 24 23 24 23 21 20 19 18 17 16 16 15 16 16 16 15
14 14 12 15 15 13 18 18 18 18 19 18 18 20 21 13 19 21 25 25 24 24 25 22 19 19 17 15 16 19 21 21 22 22 22 22 21 20 19 18 17 17 16 16 16 17 16 17 15
16 16 14 13 11 11 15 16 17 16 18 18 16 18 21 13 16 23 25 24 24 24 23 22 21 22 21 18 18 18 20 20 21 21 21 21 20 19 18 17 17 17 17 17 17 18 17 17 18
10 12 17 14 7 16 15 15 15 16 16 16 16 16 18 18 19 23 24 23 23 24 23 24 24 23 23 22 20 18 20 20 20 19 19 19 19 18 17 17 17 18 18 17 19 19 19 19 18
15 18 18 14 15 17 17 17 17 17 17 17 15 15 16 20 20 22 23 21 22 23 22 22 21 22 21 19 19 20 20 19 19 17 16 18 18 17 17 18 18 18 18 17 19 19 20 20 19
17 18 18 14 17 17 17 18 18 18 18 18 16 16 17 20 21 22 22 20 19 20 21 21 20 19 20 20 17 20 21 21 18 18 17 17 17 18 18 18 18 18 18 18 18 19 20 20 19
17 13 17 19 21 20 19 18 19 18 19 18 17 17 13 22 23 22 22 20 18 19 20 20 20 21 18 15 8 5 13 22 21 21 19 18 18 17 17 18 17 17 18 18 18 19 20 20 19
7 10 7 20 20 21 19 19 19 19 18 16 17 15 21 22 24 24 23 22 21 20 20 21 19 18 18 12 9 9 13 16 25 23 19 19 18 18 18 18 18 17 18 18 18 18 19 20 20
14 14 19 20 20 21 22 21 19 19 18 15 18 21 24 23 24 24 23 23 22 20 19 19 19 20 19 12 10 11 17 18 25 24 19 18 19 19 17 18 17 17 17 18 18 19 19 19 19
12 14 19 19 20 21 20 20 20 17 10 14 22 23 25 25 25 24 23 23 22 21 21 20 20 20 20 17 14 12 18 20 22 23 22 20 19 19 17 16 17 18 18 17 20 20 18 19 19
12 13 16 15 18 18 19 18 18 17 5 24 23 24 25 25 24 22 22 22 22 21 20 20 20 19 18 16 16 13 18 20 20 21 19 19 18 18 16 16 14 18 18 18 19 20 19 19 20
14 14 15 15 17 17 17 18 16 19 22 24 24 24 24 23 23 22 21 22 22 21 21 20 20 18 18 17 17 17 18 19 19 21 21 19 18 17 19 4 10 20 20 20 20 21 19 19 19
15 13 13 16 16 16 17 17 17 20 22 23 24 24 23 23 22 22 21 21 20 20 21 22 20 19 19 18 17 17 16 17 18 20 20 20 18 16 16 11 22 22 21 22 20 20 20 20 18
14 14 16 17 15 16 18 17 18 21 21 22 23 24 23 22 22 21 21 21 20 21 21 20 21 20 19 18 15 19 17 17 16 18 18 20 20 17 14 14 23 23 21 21 21 19 20 19 18
14 14 16 15 15 14 17 15 11 21 21 21 22 22 22 22 21 21 21 21 20 20 20 20 19 20 19 18 17 17 16 17 17 16 17 19 21 21 16 16 19 21 20 20 21 19 19 14 9
16 15 16 14 15 14 16 17 9 18 20 20 20 21 21 20 20 20 21 20 20 19 19 19 19 19 19 18 17 15 14 14 15 15 16 18 21 24 20 19 19 5 20 21 22 22 20 17 16
15 18 18 13 14 13 15 20 16 15 17 19 19 20 20 20 19 18 18 20 20 20 19 19 17 19 19 19 17 15 14 10 8 7 18 18 20 25 24 21 18 19 23 24 23 24 23 20 19
18 19 19 18 16 8 12 17 17 13 16 18 19 20 19 17 16 17 18 18 19 19 19 19 18 17 17 18 18 15 11 12 11 18 15 17 21 24 25 24 19 12 17 25 24 25 22 16 21
19 21 20 20 20 16 17 16 15 8 17 18 19 18 17 17 17 17 17 18 18 18 18 17 17 16 15 15 13 11 11 12 12 12 12 13 15 22 24 22 22 11 7 18 26 26 24 19 18
18 17 16 17 16 15 15 13 16 14 16 19 18 18 17 17 18 17 18 18 18 18 18 17 15 14 14 14 12 11 10 11 12 12 8 9 11 15 19 22 21 15 4 25 27 26 26 25 20
17 16 17 16 15 16 15 15 15 16 12 13 14 16 18 18 19 19 20 19 18 18 18 18 17 16 14 12 11 10 10 7 6 9 7 9 11 7 15 21 20 20 13 26 30 26 25 25 23
12 18 18 17 16 18 16 15 14 15 19 18 18 17 16 17 16 17 19 18 17 17 17 16 15 14 13 13 11 9 7 6 5 5 7 9 4 3 12 15 17 17 17 22 25 29 24 23 21
15 16 18 15 14 15 18 18 18 18 18 19 19 16 14 13 14 17 12 15 15 13 12 12 13 12 12 11 11 9 7 5 3 3 8 8 9 3 5 11 12 17 18 17 16 29 28 19 18
15 18 19 17 15 15 15 18 16 17 15 15 15 15 15 14 11 10 9 11 12 9 7 9 10 9 9 9 9 8 5 3 3 4 8 11 12 14 7 2 15 13 11 12 3 12 30 19 17
13 15 13 14 17 16 17 17 17 13 12 13 13 14 15 14 13 10 10 11 11 9 6 5 6 5 8 9 5 4 3 4 1 10 18 17 12 14 11 10 13 17 20 13 6 18 19 24 17
16 8 17 18 20 19 17 18 16 10 10 11 12 13 13 13 13 13 13 15 14 13 15 10 5 4 4 4 7 7 8 6 12 14 32 29 21 14 11 11 13 9 17 8 7 32 22 21 20
16 16 16 17 20 22 19 20 14 6 8 9 11 12 12 13 14 14 15 17 18 17 18 18 14 10 8 8 11 12 11 12 17 14 2 3 21 30 34 18 11 13 11 15 17 22 20 19 31
17 17 19 24 23 20 22 20 15 5 5 7 9 10 11 13 14 15 17 18 18 18 18 18 16 14 14 14 14 16 16 17 17 16 10 11 9 20 40 38 17 10 12 14 13 21 26 23 28
Wind_Direction
295 132 146 191 71 8 70 125 115 80 80 116 102 116 109 89 120 99 97 105 113 116 111 107 98 96 101 103 102 108 108 111 114 115 117 118 122 121 118 113 104 90 67 54 54 47 37 47 67
53 96 80 247 70 327 84 105 81 93 75 79 73 79 101 98 66 82 104 114 117 115 113 110 102 96 98 106 107 107 106 110 111 117 119 122 125 122 120 117 102 91 84 72 64 59 58 70 69
149 155 228 219 36 341 42 77 48 63 54 62 71 17 107 123 57 96 99 116 115 121 120 110 106 103 101 102 108 105 106 109 114 120 122 129 126 122 120 115 102 94 92 88 82 93 94 101 90
132 153 318 1 32 6 78 73 74 61 37 26 44 32 56 340 91 102 110 115 114 117 121 116 111 111 108 104 105 109 113 112 116 118 123 131 128 124 119 109 102 100 100 98 99 115 105 124 98
101 97 337 339 313 306 42 64 55 59 52 51 65 50 70 349 63 102 113 116 116 118 120 120 118 119 120 114 114 113 117 113 118 118 122 131 133 132 119 113 103 107 111 96 120 133 111 124 129
292 180 10 343 269 35 59 69 59 59 53 60 45 54 70 70 89 110 115 114 118 120 122 128 131 129 128 126 123 118 123 124 123 119 121 132 135 129 121 118 112 126 117 110 153 158 136 143 130
351 360 8 354 10 32 53 64 63 57 59 52 54 46 63 104 102 114 116 111 116 120 122 126 127 132 131 127 127 130 134 132 131 122 117 127 134 132 128 132 124 131 138 123 169 163 158 139 122
8 9 26 176 28 21 58 57 69 74 67 72 87 82 97 114 111 113 114 110 111 117 122 126 125 128 135 136 129 140 144 149 139 135 133 125 137 144 138 142 135 145 144 130 127 136 148 143 129
66 328 127 108 77 63 69 69 53 50 53 98 139 146 113 105 111 115 116 115 114 118 127 128 130 136 131 124 101 69 275 198 181 159 145 139 148 137 130 143 147 149 152 143 134 143 143 140 139
250 313 16 85 90 69 76 75 78 71 78 109 84 48 97 106 116 122 127 127 127 128 128 136 130 133 132 103 87 117 128 164 212 204 155 154 151 146 143 159 167 164 163 165 142 142 142 158 163
43 7 71 87 90 74 78 88 104 74 80 120 121 112 116 116 124 128 127 133 133 131 129 129 132 138 140 97 86 103 137 156 180 200 154 151 159 160 147 167 172 177 179 183 156 156 155 158 171
303 213 96 49 95 87 79 87 71 113 128 124 115 116 120 121 127 129 130 135 136 137 139 136 138 137 144 118 92 94 138 153 172 174 175 161 160 164 150 154 170 190 181 167 184 175 160 160 173
308 322 85 64 106 113 88 80 80 115 133 61 86 108 122 123 125 123 129 133 138 138 139 139 140 138 132 117 112 98 169 160 157 157 151 150 152 159 159 213 151 194 197 175 172 186 164 165 183
255 261 173 129 116 107 85 76 137 114 78 74 87 108 122 126 131 127 128 136 140 141 145 142 143 138 136 131 135 139 165 162 161 168 167 159 163 168 199 117 118 235 217 197 185 192 175 173 182
246 304 318 89 106 97 106 99 118 101 94 86 97 113 125 133 136 137 137 137 139 141 147 153 149 144 150 146 145 154 165 158 167 173 167 171 165 167 170 145 224 239 233 206 190 177 174 165 164
290 308 321 39 96 90 110 117 102 107 105 105 107 114 126 136 144 144 145 150 143 146 149 149 152 153 153 152 141 170 170 167 162 165 165 176 178 162 158 193 221 241 235 224 187 160 170 166 165
311 317 308 312 88 73 111 151 305 119 124 119 120 122 128 131 139 146 151 150 145 152 149 154 152 156 155 156 157 165 165 172 173 165 162 173 184 187 176 191 191 217 242 242 220 169 161 125 60
303 300 298 16 54 87 132 174 187 123 137 131 130 132 132 132 136 141 150 152 152 149 153 157 154 158 157 157 159 152 150 157 161 165 167 177 189 208 195 188 180 29 255 253 236 212 181 169 161
297 256 254 229 122 105 138 206 197 129 145 141 144 147 141 142 133 136 140 147 147 151 155 154 148 157 154 160 152 155 156 131 110 107 188 188 189 205 207 198 178 175 209 244 247 238 215 193 190
272 261 262 248 290 62 355 192 232 135 162 154 147 153 154 140 127 128 132 137 142 148 153 156 155 149 150 155 164 152 113 141 138 189 177 184 198 203 208 205 181 143 178 239 253 244 258 289 254
273 275 257 258 269 293 292 295 317 143 157 148 155 158 153 146 141 133 129 132 137 143 147 148 152 152 152 149 134 128 122 149 148 157 167 170 178 195 196 196 195 151 126 222 254 254 254 284 288
288 273 278 271 271 293 301 315 261 244 200 141 153 161 158 151 156 142 136 132 136 142 143 147 145 145 147 144 139 137 137 152 166 172 125 153 163 174 185 197 198 184 138 272 258 256 255 259 270
293 310 288 298 306 300 303 294 289 259 330 251 275 164 171 160 153 148 148 140 135 138 140 144 143 144 142 139 144 134 143 122 65 20 54 157 169 144 176 194 197 198 180 226 239 259 262 258 282
320 298 296 302 304 278 280 270 301 293 231 233 258 250 186 151 140 140 139 133 132 132 137 138 136 138 138 142 144 145 138 117 58 42 26 12 116 81 175 182 190 192 191 207 205 257 279 285 300
294 293 290 296 294 283 256 267 269 258 251 264 276 265 63 106 120 130 108 124 127 127 127 130 135 136 134 135 140 148 148 128 83 26 1 357 350 355 169 182 190 196 192 188 186 225 264 298 310
289 281 278 287 288 292 286 275 293 276 307 309 323 8 33 55 64 79 80 59 134 112 102 134 138 128 135 130 136 135 104 72 52 6 341 335 333 328 328 282 194 189 186 186 238 305 228 296 301
292 287 315 301 289 284 285 284 268 300 332 344 355 5 16 29 32 31 27 49 78 67 57 104 105 109 137 147 109 81 35 359 32 344 317 316 324 321 322 315 204 200 201 197 230 292 292 285 299
289 347 289 287 275 281 288 279 293 328 335 349 355 2 6 17 22 20 4 7 9 12 356 10 11 63 90 78 29 21 21 12 350 333 279 290 308 315 313 304 303 289 209 231 243 230 288 287 289
296 299 302 299 288 283 290 292 317 18 5 15 11 10 20 24 23 16 4 4 8 7 358 1 15 27 34 29 20 6 359 351 348 1 161 248 308 294 281 299 288 292 285 289 285 284 285 285 277
310 307 295 283 286 294 292 298 311 340 8 8 7 17 21 27 30 27 18 11 9 6 6 12 14 12 10 11 11 1 359 349 338 342 345 329 324 316 262 272 293 263 277 284 280 283 280 280 280